Location: Unspecified
(49.8670°N, 0.0000°E)
Time: 03:21:43
(UTC+00:00)

S-56A Canister/Altair - Pass Details

Date: 21 June 2019
Orbit: 632 x 2500 km, 38.9° (Epoch: 17 July)

Event Time Altitude Azimuth Distance (km) Brightness Sun altitude
Rises 18:12:24 0° 251° (WSW) 4,388 12.3 16.1°
Reaches altitude 10° 18:16:09 10° 242° (WSW) 3,091 11.4 15.5°
Maximum altitude 18:22:11 30° 184° (S) 1,588 9.1 14.6°
Drops below altitude 10° 18:26:44 10° 124° (SE) 2,283 9.4 13.9°
Sets 18:29:06 0° 113° (ESE) 3,076 10.0 13.5°
